Lapse_Rate
5.9 6.0 5.8 5.7 5.3 5.2 5.7 5.6 5.3 4.9 4.4 4.0 4.6 4.6 4.3 3.8 4.2 4.3 3.7 3.7 3.4 3.8 4.3 4.1 3.5 3.3 4.5 4.7 4.9 4.6 5.4 5.8
5.9 5.1 4.9 5.0 5.2 5.3 5.5 5.1 4.8 4.8 4.5 4.2 4.9 5.3 4.5 4.8 4.6 3.8 3.6 3.9 3.4 3.4 4.0 3.9 4.1 5.3 5.1 4.6 4.9 5.4 5.5 5.2
5.4 5.2 4.6 4.5 4.3 4.5 4.7 4.9 4.9 4.8 5.3 4.2 5.1 5.4 5.3 5.8 3.2 2.3 2.5 3.2 3.3 3.0 3.8 4.5 4.7 4.8 4.5 4.9 5.5 5.4 5.7 5.4
5.1 4.7 4.6 4.5 4.2 4.3 4.6 5.0 4.9 4.7 5.0 5.0 4.2 4.5 4.2 4.7 3.5 3.6 3.5 3.2 2.8 2.8 3.6 4.5 4.4 5.0 5.4 5.1 5.4 6.2 6.7 6.1
5.6 4.7 4.6 4.3 4.0 4.1 4.2 4.5 4.5 4.5 4.4 5.0 4.4 5.8 5.6 5.1 4.3 4.2 3.5 3.0 2.6 2.9 3.8 4.2 4.4 4.6 4.8 5.0 5.2 5.9 6.2 7.5
5.4 5.2 4.9 4.4 4.0 2.9 3.5 3.8 4.0 4.0 4.0 4.9 4.9 5.9 5.9 4.7 3.8 4.5 4.0 2.5 2.6 2.9 3.5 3.8 4.2 4.3 4.5 5.0 5.0 5.3 4.4 3.8
4.7 5.4 5.4 4.3 3.2 2.7 2.7 3.2 3.5 3.9 4.0 4.3 4.6 4.7 3.9 4.1 4.1 3.9 3.4 3.8 3.4 2.7 3.6 3.9 3.9 4.2 4.3 4.7 4.7 4.0 3.3 5.3
4.6 4.6 3.6 4.2 3.0 2.9 2.8 3.0 3.3 3.2 3.4 3.8 3.6 4.2 4.3 5.1 4.6 2.8 2.2 3.3 3.2 3.0 3.2 3.4 3.8 4.0 3.9 4.0 1.9 2.0 4.1 4.9
4.8 4.4 3.7 3.1 2.3 2.5 2.4 2.9 3.5 3.1 2.0 3.0 3.7 4.1 4.1 4.4 3.8 2.5 2.7 3.5 3.4 2.9 2.9 3.3 3.4 2.9 1.5 1.8 3.0 4.4 6.0 6.8
4.2 4.3 3.8 3.2 2.1 1.6 1.3 2.0 3.0 2.5 2.0 2.3 2.7 3.4 3.9 2.2 2.1 2.5 2.4 3.2 2.6 2.8 2.9 3.8 3.4 2.6 3.1 3.2 5.7 6.5 6.4 6.1
3.6 4.0 3.6 3.6 3.2 2.7 2.6 3.1 3.2 3.2 2.8 2.8 2.8 3.3 3.7 2.9 2.7 3.2 2.0 2.0 2.8 2.6 3.8 3.5 2.9 3.2 4.4 4.8 6.8 6.7 7.3 6.4
2.5 3.1 3.7 3.9 3.5 3.0 3.0 3.6 3.5 3.2 2.7 2.8 3.0 2.8 3.4 3.6 2.6 1.8 0.9 2.3 2.9 3.4 3.9 3.2 3.5 4.0 5.0 5.3 6.2 6.4 6.8 7.7
2.2 2.2 2.2 2.3 2.6 3.0 2.6 2.4 2.6 3.0 2.6 1.7 1.8 1.5 1.1 1.3 1.1 0.8 0.9 2.2 2.6 2.3 3.0 3.7 4.5 4.4 6.4 6.0 6.6 5.9 7.6 7.6
2.0 1.9 2.0 2.0 1.8 1.7 2.0 1.9 2.5 2.4 1.2 1.2 1.3 1.1 0.8 0.9 0.8 0.7 2.1 2.1 2.7 2.3 3.8 4.7 5.5 5.5 7.0 5.8 5.6 7.9 7.9 7.4
3.7 3.4 3.2 3.0 2.4 2.5 2.1 1.5 0.9 0.1 0.3 0.4 0.6 0.5 1.0 1.8 2.6 3.0 2.9 3.4 3.3 4.1 4.3 5.1 5.4 6.0 6.2 6.3 7.7 8.2 7.8 7.5
4.8 5.0 4.5 4.1 3.7 3.7 3.4 3.2 2.3 2.0 1.9 1.8 1.3 2.1 2.9 3.3 3.4 2.5 3.2 3.2 3.7 4.5 4.5 5.3 5.5 5.0 5.5 5.6 6.6 8.0 8.6 8.0
3.7 3.3 3.3 2.9 2.9 3.1 2.3 1.7 1.4 2.0 2.3 2.7 2.8 3.3 2.2 1.2 1.7 1.8 2.3 3.2 4.5 5.8 5.5 4.9 4.4 4.4 4.4 4.9 5.3 7.7 7.5 7.2
1.5 0.6 0.0 -0.0 0.2 0.8 0.8 0.8 1.2 2.0 2.7 3.3 3.0 2.6 2.4 2.7 2.9 3.5 4.3 4.4 5.1 4.9 4.7 4.7 4.4 5.1 4.7 4.8 4.6 7.0 7.3 7.3
0.0 -0.1 -0.6 -0.9 -0.4 -0.4 0.0 0.6 0.9 1.7 2.7 3.6 3.5 3.0 3.4 4.0 4.0 4.5 5.0 4.9 4.6 4.6 4.7 5.3 6.3 6.5 4.5 4.1 3.8 6.9 6.9 6.7
Wind_Speed
15 15 14 14 14 14 14 11 11 10 8 8 7 7 6 6 6 9 12 12 13 13 12 13 12 9 7 7 5 4 3 2
13 15 16 16 15 14 15 13 12 9 7 7 6 7 6 5 8 10 12 13 14 13 12 12 11 7 7 8 5 4 3 2
13 14 16 17 17 16 15 15 14 11 8 7 5 8 6 6 7 7 9 13 14 13 14 12 12 7 7 6 5 3 2 2
13 15 17 16 18 18 16 16 15 13 12 8 4 6 4 4 5 5 10 13 14 14 15 13 12 9 6 6 5 4 3 3
15 17 17 18 16 15 16 15 15 14 15 12 13 10 9 8 7 7 9 14 14 14 14 14 13 11 8 6 6 4 3 4
19 19 19 17 16 15 14 15 14 14 14 14 12 13 9 6 5 9 8 11 14 15 15 16 14 11 11 9 6 5 4 3
18 16 15 15 13 13 14 16 14 15 15 15 16 15 11 7 8 8 7 8 10 15 17 16 15 15 13 12 12 8 6 5
17 18 17 15 17 16 14 17 16 16 16 16 15 16 14 13 11 8 9 9 8 11 16 15 15 16 13 12 8 8 9 6
18 19 17 17 17 17 16 16 16 16 14 17 15 16 9 8 10 8 8 8 9 15 17 19 18 15 15 10 9 8 8 6
15 15 16 16 16 17 17 16 16 14 16 14 14 13 12 10 10 10 8 8 7 16 18 18 15 14 12 12 7 8 7 6
9 12 14 13 13 12 14 15 15 14 14 13 12 13 13 10 10 13 13 11 13 14 15 16 13 11 13 10 5 5 6 5
7 8 9 10 10 11 13 13 12 12 12 12 12 12 12 11 10 11 11 11 12 15 15 12 9 8 9 5 5 5 8 8
5 6 7 8 10 10 10 9 11 12 10 10 11 10 9 10 9 9 10 11 12 13 11 9 7 8 7 4 3 6 9 9
6 6 5 4 4 5 6 8 11 8 6 7 7 7 8 8 8 8 9 10 13 10 8 6 5 7 6 3 8 10 10 9
2 1 3 3 5 6 6 6 3 2 3 4 4 4 5 6 8 9 10 11 10 11 9 8 6 5 3 6 7 8 9 10
5 3 3 3 4 4 3 3 3 5 5 5 5 6 7 8 9 9 9 9 8 10 8 7 4 2 2 2 8 11 11 12
12 12 10 6 2 3 1 3 4 4 4 5 7 9 10 11 11 11 11 11 9 8 5 4 4 3 7 14 11 11 12 12
10 10 9 8 7 7 8 7 7 8 8 9 10 11 12 11 12 12 10 8 5 3 2 3 5 7 11 13 13 9 10 10
9 8 10 10 9 11 11 11 11 11 11 11 11 12 13 12 10 10 7 3 3 3 6 8 9 9 10 11 9 8 8 9
Wind_Direction
184 185 186 193 191 189 190 195 189 181 167 164 169 163 166 173 180 180 172 167 166 156 151 151 146 133 130 128 130 118 126 121
188 189 187 192 199 196 198 194 192 177 165 169 181 182 182 184 195 187 181 173 169 163 157 151 153 148 143 139 126 140 116 53
203 196 190 195 197 203 201 201 192 189 184 177 184 176 193 196 177 178 176 179 176 165 161 159 159 146 148 148 164 131 119 111
208 201 204 199 202 201 201 201 195 190 189 175 146 150 136 173 184 190 192 183 175 166 165 161 158 150 152 154 131 133 184 186
214 205 205 205 206 205 205 200 197 195 188 188 186 197 196 201 190 184 181 185 174 164 162 158 159 159 150 140 139 140 171 222
213 211 208 207 201 198 197 198 200 196 195 198 197 208 209 181 170 181 181 174 169 168 167 167 164 156 147 140 132 171 197 174
219 220 209 204 196 193 188 195 199 196 196 199 203 204 191 173 176 175 178 180 178 177 175 173 161 151 151 161 174 176 187 212
214 209 200 204 198 195 196 195 202 198 197 202 204 204 197 194 183 176 167 183 191 187 179 170 164 158 163 157 159 204 194 195
212 214 204 201 200 197 192 197 206 198 199 206 206 204 200 200 189 176 190 193 189 184 181 174 168 170 152 172 202 197 193 197
216 212 207 203 199 195 191 194 208 200 206 206 209 205 202 192 184 188 187 184 178 184 177 175 174 167 189 181 207 187 186 199
212 209 206 205 201 196 195 203 209 207 208 206 208 212 207 201 190 196 192 190 182 177 176 179 174 194 197 191 183 199 200 204
221 214 211 206 194 194 200 212 215 215 210 209 211 208 206 201 199 197 189 182 182 179 183 183 187 178 185 168 188 202 228 227
208 218 208 200 206 207 210 209 213 220 212 203 212 206 199 201 200 187 178 179 177 174 178 177 177 175 182 196 194 230 238 236
202 206 220 229 220 221 213 216 224 227 190 213 216 212 197 195 189 173 172 170 176 165 146 142 168 169 198 176 233 251 248 246
204 198 220 212 223 226 224 234 190 156 151 177 188 188 195 180 171 173 174 172 159 153 148 159 152 155 199 238 258 268 267 257
118 162 188 208 234 237 240 222 171 173 165 155 143 144 144 141 127 108 105 92 100 120 110 126 143 138 252 301 274 266 273 276
78 78 80 64 348 303 35 74 90 112 108 111 122 124 109 100 98 98 96 96 105 104 100 133 183 225 243 253 256 276 273 270
85 79 73 68 67 80 92 99 106 104 107 114 112 108 101 99 104 104 104 105 120 124 201 211 230 246 245 260 260 272 273 271
79 79 78 67 73 81 89 89 92 95 98 104 107 108 108 108 100 98 102 108 151 205 237 246 252 260 254 264 267 277 275 277